Location: ActonStarParty
(42.4766°N, 71.4538°W)
Time: 05:02:40
(UTC-05:00)

ISS - Visible Passes

Search period start: 18 January 2017 00:00
Search period end: 28 January 2017 00:00
Orbit: 400 x 410 km, 51.6° (Epoch: 18 January)

Date Brightness Start Highest point End Pass type
(mag) Time Alt. Az. Time Alt. Az. Time Alt. Az.
18 Jan -3.0 05:16:07 62° SSE 05:16:07 62° SSE 05:18:54 10° SE visible
19 Jan 0.0 04:26:17 13° ESE 04:26:17 13° ESE 04:26:40 10° ESE visible
19 Jan -1.5 05:58:58 16° WSW 05:59:39 17° SW 06:01:53 10° S visible
20 Jan -1.2 05:09:13 20° S 05:09:13 20° S 05:10:32 10° SSE visible
27 Jan -1.6 18:51:30 10° SSW 18:53:11 25° SSW 18:53:11 25° SSW visible
